MIDAS 5 DEB, 273

Orbit data source: Space-Track

MIDAS 5 DEB, 273 is space debris in LEO originally from a launch on Mon, 09 Apr 1962 UTC launched from the Air Force Western Test Range (AFWTR). Debris objects in space refer to the collection of defunct objects orbiting the Earth. Examples of debris include non-operational satellites, rocket bodies, and fragments generated from explosions, collisions, or faulty payload assembly.

Loading next visibility...
Identifier
273, 1962-010C
Orbit
LEO
Country
Flag of USUS
Related business
Manufacturer
Unknown
Mission
Spacecraft
Bus & Motor
Unknown
Mass
~10 kg wet, ~10 kg dry
Launch date (UTC)
1962-04-09 (64 years ago)
Launch vehicle
Unknown
Launch site
Air Force Western Test Range (AFWTR)
Object type
Payload
Rocket body
Debris
Shape & HBR
PAN, 0.4 m
Radar Cross Section
Medium (>0.1 m² and <1 m²)

Expand to show TLE details & history
Last TLE update: 18 hours ago

TLE from 18 hours ago
0 MIDAS 5 DEB
1 00273U 62010C   26254.10961916  .00000013  00000-0  15112-2 0  9999
2 00273  86.6435 284.3993 0329703 113.2138 250.3844  9.43836191219391
Epoch: 2026-09-11T02:37Z
TLE epoch observation values (Epoch: 2026-09-11T02:37:51.095Z)
Latitude
Longitude
-105.20129°
Altitude
3,195.952 km
Speed
6.414 km/s
True Right ascension
18h 57m 35s
True Declination
0° 00' 00"
Sunlit
Object was in daylight at epoch
Visualization orbit readout
Latitude
Unknown
Longitude
Unknown
Altitude
Unknown
Speed
Unknown
Apparent Right ascension
Unknown
Apparent Declination
Unknown
Sunlit
N/A
Visualization observer readout
Local Sidereal Time
13:17:19
Azimuth
Unknown
Elevation
Unknown
Doppler factor
Unknown
Orbital elements
Apogee altitude
3,389.426 km
Perigee altitude
2,765.905 km
Semi-major axis
9,455.802 km
Eccentricity
0.03297
Inclination
86.6435°
RAAN
284.3993°
Arg. of periapsis
113.2138°
True anomaly
246.87632°
Mean anomaly
250.3844°
Eccentric anomaly
248.62528°
Mean motion
2.36045 °/min
Orbital period
152.51 mins
BSTAR
0.0015112
Loading maneuver chart data...
Computing Atmospheric mass density...
Loading historical data...
Loading historical data...
Loading historical data...
Loading historical data...
Loading historical data...
Loading historical data...
Loading historical data...

Documentation

Showing up to 5 results
|